Regional Weather Roundup
Issued by NWS

Home | Current Version | Previous Version | Text Only | Print | Product List | Glossary Off
Versions: 1 2 3 4 5 6 7 8 9 10 11 12 13 14 15 16 17 18 19 20 21 22 23 24 25 26 27 28 29 30 31 32 33 34 35 36 37 38 39 40 41 42 43 44 45 46 47 48 49 50

000
ASUS45 KTFX 301404
RWRMT
MONTANA HOURLY WEATHER ROUNDUP
NATIONAL WEATHER SERVICE GREAT FALLS MT
804 AM MDT THU OCT 30 2014

NOTE: "FAIR" INDICATES FEW OR NO CLOUDS BELOW 12000 FEET WITH NO
SIGNIFICANT WEATHER AND/OR OBSTRUCTIONS TO VISIBILITY.

* THESE STATIONS ARE NOT UNDER NWS QUALITY CONTROL. THEY DO NOT
   REPORT WEATHER SUCH AS PRECIPITATION OR FOG.

MTZ001>007-043-301500-
WEST OF THE DIVIDE
CITY           SKY/WX    TMP DP  RH WIND       PRES   REMARKS
KALISPELL      FOG       41  41 100 CALM      30.25F VSB M1/4
MISSOULA       FOG       37  37 100 CALM      30.26F VSB 1 3/4
BUTTE          CLOUDY    34  28  79 CALM      30.28S
MULLAN PASS    FOG       34  34 100 SE9G20    30.18F VSB M1/4 WCI  27
* DEER LODGE   CLOUDY    34  30  85 N/A        N/A
* ESSEX        N/A       38  38 100 S2         N/A
* HAMILTON APT PTSUNNY   41  36  82 S2         N/A
* LIBBY APT    CLOUDY    43  41  93 N/A        N/A
* LINCOLN      N/A       29  28  96 N/A        N/A
* LOOKOUT PASS N/A       38  38 100 S8G13      N/A   WCI  32
* POLSON       N/A       40  40 100 VRB2       N/A
* RONAN APT    CLOUDY    34  30  85 N/A        N/A
* SEELEY LAKE  N/A       31  30  96 N/A        N/A
* THOMP F APT  CLOUDY    38  27  65 W1G7       N/A
* YAAK HILL    N/A       41  39  93 SE1        N/A
$$

MTZ008-052>055-301500-
SOUTHWEST MONTANA
CITY           SKY/WX    TMP DP  RH WIND       PRES   REMARKS
BOZEMAN        CLOUDY    34  28  79 CALM      30.29S
DILLON         CLOUDY    36  28  73 N5        30.28S WCI  32
W YELLOWSTONE  CLOUDY    27  25  92 CALM      30.35F
* ENNIS APT    PTSUNNY   37  28  70 N/A        N/A
* THREE FORKS  PTSUNNY   32  32 100 N/A        N/A
* BOULDER HILL N/A       34  25  70 S10        N/A   WCI  26
* RAYNOLDS PAS N/A       32  15  49 S11        N/A   WCI  23
* WHITEHALL    N/A       34  29  82 S2         N/A
* WISE RIVER   N/A       31  29  92 W5         N/A   WCI  26
$$

MTZ009>010-012-014-046-048-049-054-301500-
EAST SLOPES AND CENTRAL MONTANA
CITY           SKY/WX    TMP DP  RH WIND       PRES   REMARKS
CUT BANK       SUNNY     34  28  79 CALM      30.23R
GREAT FALLS    SUNNY     34  28  79 CALM      30.24R
HELENA         PTSUNNY   37  32  82 CALM      30.27S
MALMSTROM AFB  SUNNY     32  30  92 NE2       30.26R
* CONRAD       SUNNY     21  19  92 N/A        N/A
* DEARBORN     N/A       30  29  96 S1         N/A
* EAST GLACIER N/A       37  33  85 W11G17     N/A   WCI  29
* MONARCH      N/A       30  25  82 S12        N/A   WCI  20
* SAINT MARY   N/A       35  26  70 S4G11      N/A
* SWEET GRASS  N/A       42  29  60 W6         N/A
$$

MTZ011-013-016-021-035-040-045-047-050-051-301500-
NORTH CENTRAL MONTANA
CITY           SKY/WX    TMP DP  RH WIND       PRES   REMARKS
HAVRE          SUNNY     28  27  96 E6        30.27R WCI  21
LEWISTOWN      PTCLDY    30  27  89 SE8       30.27S WCI  22
* N BAR RANCH  SUNNY     34  27  76 VRB5      30.29R WCI  29
* CHESTER      N/A       26  23  88 E2         N/A
* DENTON       N/A       32  28  85 SW5        N/A   WCI  27
* GEYSER       N/A       28  24  85 S4         N/A
* JUDITH GAP   N/A       36  27  70 SE1        N/A
* LOMA         N/A       34  30  85 W6         N/A   WCI  29
$$

MTZ017>020-022>027-061-062-301500-
NORTHEAST MONTANA
CITY           SKY/WX    TMP DP  RH WIND       PRES   REMARKS
GLASGOW        CLOUDY    36  30  79 E6        30.32R WCI  31
GLENDIVE       CLOUDY    36  32  85 N5        30.33R WCI  32
JORDAN         SUNNY     28  28 100 CALM      30.30R
SIDNEY         CLOUDY    36  30  79 N8        30.34R WCI  30
WOLF POINT     CLOUDY    37  30  76 NE7       30.34R WCI  32
* BEAVER HILL  N/A       33  31  92 N11        N/A   WCI  24
* CIRCLE       N/A       30  29  96 N/A        N/A
* LINDSAY DVD  N/A       33  32  96 N5         N/A   WCI  28
* NAVAJO       N/A       31  30  96 NE9        N/A   WCI  23
* PLENTYWOOD A N/A       27 N/A N/A N/A        N/A
* POPLAR APT   N/A       36  30  79 N/A        N/A
$$

MTZ028>042-056>058-301500-
SOUTHCENTRAL AND SOUTHEAST MONTANA
CITY           SKY/WX    TMP DP  RH WIND       PRES   REMARKS
BAKER          CLOUDY    34  32  92 N7        30.31R WCI  28
BILLINGS       PTCLDY    34  25  70 SW13      30.29R WCI  25
LIVINGSTON     PTSUNNY   36  27  70 NW7       30.28S WCI  30
MILES CITY     SUNNY     28  25  89 NW3       30.30R
* FORSYTH APT  SUNNY     37  30  76 N/A        N/A
* LAUREL APT   PTCLDY    32  21  64 SW6        N/A   WCI  26
* ROUNDUP APT  SUNNY     30  25  82 N/A        N/A
* ALZADA       N/A       34  28  79 W4         N/A
* HYSHAM       N/A       38  29  70 W7         N/A   WCI  33
* LAME DEER    N/A       40  30  68 W6         N/A   WCI  36
* REED POINT   N/A       28  27  96 N/A        N/A
* ROSCOE HILL  N/A       40  21  47 E5         N/A   WCI  36
$$

REGIONAL REPORTS...DAKOTAS
CITY           SKY/WX    TMP DP  RH WIND       PRES   REMARKS
WILLISTON      CLOUDY    36  30  79 N9        30.32R WCI  29
DICKINSON      FOG       36  32  85 N8        30.26R VSB 3    WCI  30
BEACH          N/A       32  32 100 N9        30.31R WCI  24
CROSBY         CLOUDY    32  32 100 N8        30.34R WCI  25
TIOGA          FOG       32  32 100 NE6       30.34R WCI  26
BISMARCK       SUNNY     32  28  85 NW7       30.27R WCI  25
GRAND FORKS    CLOUDY    34  30  85 N13       30.20R WCI  25
FARGO          CLOUDY    39  37  93 N15       30.14R WCI  31
BUFFALO SD     SUNNY     34  30  85 N20       30.21R WCI  23
RAPID CITY     SUNNY     36  28  73 CALM      30.25R
$$

REGIONAL REPORTS...WYOMING/IDAHO/WASHINGTON
CITY           SKY/WX    TMP DP  RH WIND       PRES   REMARKS
GILLETTE       SUNNY     36  27  70 W5        30.30R WCI  32
SHERIDAN       SUNNY     30  25  82 SW5       30.31R WCI  25
CODY           PTSUNNY   37  28  70 SE3       30.31S
YELLOWSTONE LA PTSUNNY   27  25  92 CALM      30.39S
SALMON         CLOUDY    37  34  89 CALM      30.26F
MULLAN PASS    FOG       34  34 100 SE9G20    30.18S VSB M1/4 WCI  27
SAND POINT     CLOUDY    43  43 100 NE12      30.18F
SPOKANE        CLOUDY    45  45 100 NE9       30.12S

$$




USA.gov is the U.S. government's official web portal to all federal, state and local government web resources and services.